Dump

United States     37˚40′18″N   122˚29′38″W
temp.,
°C
wind,
m/s
gust,
m/s
humid.,
%
clouds,
%
prec.,
mm/h
press.,
hPa
HPBL,
m
28 november, sat
sat2801:00+12˚ne22560 0.0 102423
04:00+11˚nne34580 0.0 1024104
07:00+10˚nne45590 0.0 1024159
10:00+11˚ne44520 0.0 1025236
13:00+13˚nne45510 0.0 1023242
16:00+14˚nnw34510 0.0 1022144
19:00+13˚nnw23540 0.0 102236
22:00+12˚n23550 0.0 102332
29 november, sun
sun2901:00+12˚ne22561 0.0 102223
04:00+11˚ne335548 0.0 102251
07:00+11˚ne335571 0.0 102365
10:00+12˚nne344964 0.0 1023156
13:00+13˚nne344685 0.0 1021159
16:00+13˚nw344885 0.0 1022103
19:00+12˚wnw235895 0.0 102264
22:00+12˚nw116098 0.0 102426
30 november, mon
mon3001:00+11˚n126164 0.0 102430
04:00+11˚nnw225832 0.0 102429
07:00+11˚nne23550 0.0 102543
10:00+11˚n23530 0.0 1026147
13:00+13˚nw22460 0.0 1024180
16:00+13˚w23590 0.0 1024113
19:00+13˚wnw34840 0.0 1024100
22:00+12˚nnw34870 0.0 1025107
1 december, tue
tue101:00+11˚nw23900 0.0 102484
04:00+11˚ne22870 0.0 102331
07:00+11˚nne33810 0.0 102263
10:00+12˚nne34650 0.0 1023160
13:00+14˚nne23530 0.0 1020155
16:00+13˚wnw33620 0.0 101993
19:00+12˚wnw33720 0.0 101863
22:00+12˚nw22740 0.0 101935
2 december, wed
wed201:00+12˚ne23670 0.0 101923
04:00+12˚ne44610 0.0 101856
07:00+11˚ne57530 0.0 1018170
10:00+12˚nne46500 0.0 1019238
13:00+14˚nne34460 0.0 1018157
16:00+13˚wnw45580 0.0 1017126
19:00+12˚wnw45710 0.0 1018137
22:00+11˚w12840 0.0 101953